Location: Wildlife_Club
(35.6000°N, 81.4330°W)
Time: 09:26:07
(UTC-04:00)

A-11 Canister half - Pass Details

Date: 01 July 2019
Orbit: 1514 x 1686 km, 47.2° (Epoch: 17 August)

Event Time Altitude Azimuth Distance (km) Brightness Sun altitude
Rises 07:49:39 0° 210° (SSW) 4,923 11.2 17.1°
Reaches altitude 10° 07:52:57 10° 204° (SSW) 3,940 10.8 17.7°
Maximum altitude 08:02:33 49° 134° (SE) 2,072 10.3 19.6°
Drops below altitude 10° 08:12:00 10° 63° (ENE) 3,897 13.0 21.5°
Sets 08:15:14 0° 58° (ENE) 4,866 12.9 22.1°
